20.04.2024;07:00;6
20.04.2024;06:00;5
20.04.2024;05:00;4
20.04.2024;04:00;4
20.04.2024;03:00;3
20.04.2024;02:00;4
20.04.2024;01:00;5
20.04.2024;00:00;6
19.04.2024;23:00;7
19.04.2024;22:00;9
19.04.2024;21:00;11
19.04.2024;20:00;14
19.04.2024;19:00;16
19.04.2024;18:00;18
19.04.2024;17:00;15
19.04.2024;16:00;14
19.04.2024;15:00;12
19.04.2024;14:00;17
19.04.2024;13:00;16
19.04.2024;12:00;12
19.04.2024;11:00;18
19.04.2024;10:00;22
19.04.2024;09:00;25
19.04.2024;08:00;28
19.04.2024;07:00;32
19.04.2024;06:00;21
19.04.2024;05:00;14
19.04.2024;04:00;12
19.04.2024;03:00;10
19.04.2024;02:00;12
19.04.2024;01:00;17
19.04.2024;00:00;17
18.04.2024;23:00;13
18.04.2024;22:00;17
18.04.2024;21:00;32
18.04.2024;20:00;22
18.04.2024;19:00;14
18.04.2024;18:00;24
18.04.2024;17:00;12
18.04.2024;16:00;6
18.04.2024;15:00;5
18.04.2024;14:00;5
18.04.2024;13:00;9
18.04.2024;12:00;9
18.04.2024;11:00;7
18.04.2024;10:00;12
18.04.2024;09:00;12
18.04.2024;08:00;12
